SCP
1 1 1 1 1 1 1 1 0 0 0 0 0 0 0 0 0 0 0 0 0 0 0 1 1 1 1 1 1 1 1 1 1 1 1 1 1 1 1 1 1 1 1
1 1 1 1 1 1 1 1 0 0 0 0 0 0 0 0 0 0 0 0 0 0 0 0 0 1 1 1 1 1 1 1 1 1 1 1 1 1 1 1 1 1 1
1 1 1 1 1 1 1 1 0 0 0 0 0 0 0 0 0 0 0 0 0 0 0 0 0 0 0 0 1 1 1 1 1 1 1 1 1 1 1 1 1 1 1
1 1 1 1 1 1 1 1 1 1 1 1 1 1 0 0 0 0 0 0 0 0 0 0 0 0 0 0 0 1 1 1 1 1 1 1 1 1 1 1 1 1 1
1 1 1 1 1 1 1 1 1 1 1 1 1 1 1 0 0 0 0 0 0 0 0 0 0 0 0 0 0 0 0 1 1 1 1 1 1 1 1 1 1 1 1
1 1 1 1 1 1 1 1 1 1 2 2 1 1 1 1 1 1 0 0 0 0 0 0 0 0 0 0 0 0 0 0 1 1 1 1 1 1 1 1 1 1 1
0 0 0 0 0 1 1 1 1 2 2 2 2 2 2 1 1 1 1 1 0 0 0 0 0 0 0 0 0 0 0 0 0 0 1 1 1 1 1 1 1 1 1
0 0 0 0 0 0 1 1 1 1 1 2 2 2 2 2 2 1 1 1 1 0 0 0 0 0 0 0 0 0 0 0 0 0 0 1 1 1 1 1 1 1 1
0 0 0 0 0 0 0 1 1 1 1 1 1 2 2 2 2 2 2 1 1 1 0 0 0 0 0 0 0 0 0 0 0 0 0 0 0 1 1 1 1 1 1
0 0 0 0 0 0 0 0 0 1 1 1 1 1 1 2 2 2 2 2 1 1 1 0 0 0 0 0 0 0 0 0 0 0 0 0 0 0 1 1 1 1 1
0 0 0 0 0 0 0 0 0 0 0 0 0 0 1 1 1 2 2 2 1 1 1 1 0 0 0 0 0 0 0 0 0 0 0 0 0 0 1 1 1 1 1
0 0 0 0 0 0 0 0 0 0 0 0 0 0 0 1 1 1 1 1 1 1 1 1 0 0 0 0 0 0 0 0 0 0 0 0 0 0 0 1 1 1 1
0 0 0 0 0 0 0 0 0 0 0 0 0 0 0 0 0 1 1 1 1 1 1 1 0 0 0 0 0 0 0 0 0 0 0 0 0 0 0 0 1 1 1
0 0 0 0 0 0 0 0 0 0 0 0 0 0 0 0 0 0 1 1 1 1 1 0 0 0 0 0 0 0 0 0 0 0 0 0 0 0 0 0 0 0 0
0 0 0 0 0 0 0 0 0 0 0 0 0 0 0 0 0 0 0 0 1 1 1 0 0 0 0 0 0 0 0 0 0 0 0 0 0 0 0 0 0 0 0
0 0 0 0 0 0 0 0 0 0 0 0 0 0 0 0 0 0 0 0 0 0 0 0 0 0 0 0 0 0 0 0 0 0 0 0 0 0 0 0 0 0 0
0 0 0 0 0 0 0 0 0 0 0 0 0 0 0 0 0 0 0 0 0 0 0 0 0 0 0 0 0 0 0 0 0 0 0 0 0 0 0 0 0 0 0
0 0 0 0 0 0 0 0 0 0 0 0 0 0 0 0 0 0 0 0 0 0 0 0 0 0 0 0 0 0 0 0 0 0 0 0 0 0 0 0 0 0 0
0 0 0 0 0 0 0 0 0 0 0 0 0 0 0 0 0 0 0 0 0 0 0 0 0 0 0 0 0 0 0 0 0 0 0 0 0 0 0 0 0 0 0
0 0 0 0 0 0 0 0 0 0 0 0 0 0 0 0 0 0 0 0 0 0 0 0 0 0 0 0 0 0 0 0 0 0 0 0 0 0 0 0 0 0 0
0 0 0 0 0 0 0 0 0 0 0 0 0 0 0 0 0 0 0 0 0 0 0 0 0 0 0 0 0 0 0 0 0 0 0 0 0 0 0 0 0 0 0
0 0 0 0 0 0 0 0 0 0 0 0 0 0 0 0 0 0 0 0 0 0 0 0 0 0 0 0 0 0 0 0 0 0 0 0 0 0 0 0 0 0 0
0 0 0 0 0 0 0 0 0 0 0 0 0 0 0 0 0 0 0 0 0 0 0 0 0 0 0 0 0 0 0 0 0 0 0 0 0 0 0 0 0 0 0
0 0 0 0 0 0 0 0 0 0 0 0 0 0 0 0 0 0 0 0 0 0 0 0 0 0 0 0 0 0 0 0 0 0 0 0 0 0 0 0 0 0 0
0 0 0 0 0 0 0 0 0 0 0 0 0 0 0 0 0 0 0 0 0 0 0 0 0 0 0 0 0 0 0 0 0 0 0 0 0 0 0 0 0 0 0
0 0 0 0 0 0 0 0 0 0 0 0 0 0 0 0 0 0 0 0 0 0 0 0 0 0 0 0 0 0 0 0 0 0 0 0 0 0 0 0 0 0 0
Wind_Speed
7 7 6 7 7 7 7 6 5 5 3 2 2 2 2 3 3 4 4 6 6 7 7 8 8 8 8 9 10 9 10 9 7 8 8 9 12 12 10 10 11 13 13
7 7 7 6 7 7 6 6 6 5 4 2 1 1 3 3 3 4 3 5 6 7 7 7 8 8 8 10 10 10 9 9 7 6 6 7 8 10 11 11 12 13 12
6 7 6 5 5 5 4 3 3 4 4 3 3 2 2 4 3 3 3 4 6 6 7 8 8 8 9 8 8 9 11 9 8 8 8 7 7 5 6 11 11 11 10
4 4 4 3 2 2 2 3 3 4 4 5 4 4 4 5 4 4 4 5 6 6 6 7 8 8 8 8 10 9 9 10 10 8 9 10 9 7 6 7 9 11 11
2 1 1 1 1 2 2 3 4 5 5 6 5 6 7 5 5 5 5 6 6 6 6 7 7 7 8 8 9 9 10 9 10 9 9 10 10 12 10 9 8 8 9
4 4 3 3 4 4 4 4 4 6 6 7 7 8 8 8 8 8 7 7 5 5 6 7 7 8 8 8 9 9 11 10 11 10 10 9 9 10 11 12 11 9 8
6 6 6 6 6 6 6 5 5 6 6 7 8 9 9 10 10 10 8 7 7 6 5 6 7 8 8 9 9 9 10 10 11 11 10 10 11 10 10 11 11 10 7
8 9 9 8 7 7 7 7 6 6 7 7 8 8 9 9 8 8 8 8 7 7 6 7 8 9 9 10 9 9 10 9 11 12 12 10 10 10 10 11 10 9 8
10 10 10 9 9 9 9 8 8 8 8 8 8 8 9 10 10 9 10 9 7 7 7 8 9 9 9 10 10 9 10 10 10 11 11 10 9 9 10 10 9 9 8
9 10 9 9 9 9 8 9 8 8 9 9 8 8 9 9 10 10 11 10 9 8 9 9 9 9 9 10 10 10 9 10 10 9 10 10 9 8 9 9 9 9 8
9 10 10 10 10 10 9 9 9 9 9 9 10 10 10 10 10 10 11 10 10 9 9 9 9 9 9 9 9 10 10 11 11 10 10 10 10 8 8 8 8 7 7
9 10 11 11 10 10 10 10 9 9 9 10 10 10 10 10 10 11 11 10 10 10 10 9 9 9 9 9 9 10 10 10 10 9 9 9 7 8 7 6 6 5 5
10 11 10 10 10 10 10 10 10 10 10 10 10 10 11 11 11 11 11 10 10 10 10 9 10 9 9 8 8 9 9 9 8 8 8 8 7 7 5 5 4 4 4
11 10 10 10 10 10 10 11 11 10 10 11 11 11 11 12 12 12 11 10 10 10 10 9 9 9 8 8 7 7 7 6 6 6 6 5 4 4 4 4 4 5 6
12 11 10 10 11 11 11 11 12 12 12 12 13 12 12 12 12 11 11 10 10 10 9 9 9 9 7 6 5 5 5 4 3 3 3 3 2 1 1 3 5 6 7
13 13 14 14 14 13 13 13 13 13 13 14 14 14 13 13 12 12 11 11 10 10 9 9 9 9 6 1 2 5 3 2 2 2 3 3 4 7 8 8 7 7 9
15 17 17 16 15 15 15 15 15 14 14 15 15 14 14 14 13 12 12 11 11 10 9 8 9 8 5 5 4 5 4 2 0 1 2 3 5 5 8 11 13 13 11
18 18 18 18 17 17 16 16 16 15 15 15 15 15 15 14 13 13 12 12 10 9 8 8 8 8 6 7 5 5 4 2 2 2 3 4 5 6 7 11 11 11 10
20 19 19 19 18 18 17 17 17 17 17 16 16 15 15 15 15 14 13 12 11 10 9 8 8 8 6 8 7 6 4 3 3 3 4 6 7 8 9 11 13 13 11
19 19 19 20 18 17 17 18 18 18 17 17 16 15 15 15 15 15 14 12 10 10 9 8 8 8 8 8 8 8 5 5 5 5 6 7 7 8 7 9 11 13 12
21 21 20 19 18 18 18 18 18 18 17 16 16 15 15 15 16 14 12 11 11 10 9 8 7 7 8 10 10 9 6 6 7 7 6 7 8 7 6 6 9 11 11
22 22 19 19 18 18 18 19 19 18 17 17 16 16 15 15 13 13 12 11 10 10 9 8 6 5 6 7 9 9 7 3 6 7 7 9 10 8 6 7 10 10 9
22 21 21 20 19 18 18 20 19 18 17 17 17 16 16 14 14 13 13 11 10 8 7 6 5 5 5 6 9 9 6 3 4 6 11 13 13 10 8 10 9 8 7
21 20 21 21 20 18 18 19 18 18 17 17 16 15 14 14 13 10 10 10 9 7 7 6 5 5 6 7 8 8 7 7 7 9 13 12 9 7 10 9 7 6 6
20 20 20 20 21 19 19 19 18 17 17 17 16 15 14 13 11 11 9 10 9 7 7 7 5 5 6 8 11 11 10 10 10 12 10 10 10 10 9 8 7 7 7
21 21 21 21 21 20 19 18 17 16 16 15 14 12 11 10 9 10 9 9 10 8 9 10 9 7 6 8 12 12 11 13 16 13 11 11 11 10 10 9 9 8 8
Wind_Direction
133 133 133 139 142 145 149 152 159 162 183 187 236 256 281 293 296 296 313 304 303 306 298 293 295 285 279 278 276 271 265 257 253 258 259 252 247 244 244 246 250 249 247
142 139 139 141 142 146 149 158 168 166 186 168 229 283 311 302 313 312 313 306 313 310 300 305 297 295 292 282 279 273 270 267 248 244 257 259 245 233 236 238 240 243 241
151 148 147 142 145 147 158 163 170 180 200 201 224 228 243 257 269 294 294 310 311 307 308 304 298 300 288 286 287 280 271 269 263 245 245 254 257 261 231 231 237 237 236
151 147 146 139 148 168 188 196 204 212 216 223 241 263 281 296 311 301 309 306 295 299 302 299 298 295 293 293 283 281 280 272 266 255 243 248 266 266 261 236 231 230 234
134 117 48 346 319 293 264 243 234 235 234 242 245 252 264 278 286 293 290 288 290 288 292 296 296 294 289 293 293 291 280 274 269 267 259 250 248 248 255 258 245 232 230
34 28 16 2 345 328 311 290 269 260 256 253 255 256 268 274 283 286 292 287 289 284 284 291 291 287 289 290 285 283 276 272 273 270 263 256 251 244 243 249 248 245 238
38 33 28 20 10 358 345 322 307 293 282 269 263 260 262 265 264 271 278 283 291 290 294 293 289 288 289 286 282 277 277 274 270 265 261 258 256 257 254 253 253 250 242
44 40 33 24 17 12 6 353 339 324 312 295 283 274 268 265 266 263 275 279 283 292 300 286 282 284 285 284 282 279 274 270 268 266 265 263 259 257 254 251 250 247 238
40 35 31 24 20 16 12 6 356 347 339 326 310 290 281 276 276 273 260 264 266 275 277 279 280 283 284 284 284 280 281 278 271 268 261 256 257 255 256 253 246 242 239
30 26 21 18 13 14 11 7 3 356 350 343 332 322 307 291 279 271 266 267 267 267 269 270 276 280 281 281 282 282 282 281 276 271 266 261 257 253 250 250 246 239 239
17 14 10 7 3 3 3 360 358 355 351 346 339 332 323 309 294 278 268 262 259 259 260 264 270 274 279 282 284 285 286 282 281 277 267 260 259 257 252 246 243 233 222
2 0 358 353 352 351 348 348 346 345 343 340 334 331 325 317 307 296 285 272 261 257 257 260 264 269 274 281 285 287 289 286 283 281 275 266 257 250 250 245 234 223 207
347 346 348 344 339 337 334 332 332 332 330 329 325 326 325 322 316 308 297 283 270 263 259 257 259 264 270 276 281 287 289 288 289 289 281 267 254 246 235 230 212 186 166
332 332 332 327 324 320 318 317 318 318 317 316 315 318 319 320 318 315 306 293 281 271 264 259 258 259 263 269 276 281 288 292 299 304 297 285 260 239 218 202 179 153 141
321 319 316 312 311 310 310 309 309 309 310 309 310 310 311 312 312 312 308 300 288 276 268 260 257 254 254 260 272 277 281 287 302 325 338 354 20 31 165 159 150 143 135
302 305 307 308 308 307 306 308 306 305 303 302 302 303 302 303 307 308 307 304 296 287 277 263 256 251 248 187 265 279 273 284 312 360 22 49 70 81 79 85 100 124 136
309 310 310 308 306 303 303 302 301 300 298 296 297 298 298 299 302 306 306 303 302 295 281 273 262 251 230 172 206 253 255 224 44 52 63 69 77 90 103 94 92 88 89
310 309 307 305 304 303 302 301 299 298 295 293 294 297 297 296 299 300 299 300 297 293 283 269 259 253 224 182 201 229 222 174 118 105 111 100 96 90 104 107 100 95 88
306 305 304 303 303 302 301 299 296 294 293 293 295 297 298 297 296 295 295 295 294 289 281 269 255 243 223 188 196 220 197 161 136 123 116 114 108 90 95 105 104 99 89
304 303 302 300 298 299 299 295 293 292 293 295 296 295 294 293 292 291 290 289 289 285 283 270 255 237 221 190 190 213 205 169 152 131 116 106 109 106 105 114 115 112 111
301 300 298 297 297 297 295 291 290 290 291 292 292 290 289 288 284 283 281 283 284 286 283 273 257 239 219 187 186 207 223 179 164 149 142 124 113 108 101 113 119 122 127
302 302 299 296 295 293 290 288 287 289 289 288 287 286 286 285 285 283 279 278 280 282 276 265 252 236 216 193 183 196 224 221 166 154 141 125 123 117 113 113 119 133 141
302 301 298 296 294 292 290 289 289 289 287 283 282 282 282 281 279 276 274 272 268 268 274 265 245 223 207 182 170 182 200 210 162 125 112 123 129 127 121 123 141 162 152
302 301 299 297 295 294 291 289 288 286 283 281 280 279 277 276 275 272 271 269 270 266 268 264 248 223 206 189 170 172 172 160 141 124 118 126 137 136 125 145 169 167 134
303 301 298 296 295 294 290 288 287 285 282 279 277 275 273 274 276 271 268 269 271 270 266 270 262 233 215 192 174 172 176 175 158 147 148 152 154 154 156 159 153 143 139
303 301 299 297 296 294 291 289 287 283 280 277 274 272 272 272 271 271 269 246 242 239 229 240 249 250 225 180 175 180 170 156 153 162 161 162 162 160 158 155 153 151 146